Temperature
18 18 18 19 15 13 15 16 18 19 21 23 23 23 22 22 21 21 21 20 19 19 19 19 20 20 20 19 19 19 18 17 15 14 14 14 14 14 15 15 15 15 14 13 13 14 14 14 14
17 18 18 18 14 14 14 16 18 19 22 23 24 23 22 21 21 21 21 20 20 20 19 19 19 20 20 20 20 19 18 17 15 14 14 14 14 14 15 15 15 15 14 14 14 14 14 15 15
17 18 18 14 13 14 16 18 19 21 22 23 23 23 22 21 22 22 22 20 20 20 20 19 19 19 19 19 20 19 19 17 16 15 14 14 14 15 15 15 15 15 15 15 15 15 15 15 14
16 17 16 13 14 14 16 18 19 20 22 23 23 22 22 21 21 22 22 21 20 20 20 19 19 19 19 19 19 19 19 18 16 15 14 14 14 14 14 14 14 14 14 14 14 14 14 14 14
15 16 13 13 13 14 15 17 19 19 21 23 23 21 21 22 21 22 22 21 20 20 19 19 18 18 19 19 19 19 19 18 16 15 15 14 14 14 14 14 14 14 14 14 14 14 14 14 14
15 13 12 12 13 15 16 19 19 19 21 22 23 21 20 21 21 21 21 20 20 20 19 18 17 18 18 18 18 19 19 18 17 15 15 15 14 14 14 14 14 14 14 14 14 14 14 14 14
14 11 12 12 13 14 16 19 19 18 19 22 23 20 20 20 20 20 20 19 19 19 18 18 17 17 18 18 18 18 18 18 17 16 15 14 14 14 14 14 14 14 14 14 14 14 14 14 14
15 11 13 13 13 14 17 19 20 20 20 22 22 20 19 20 20 19 19 18 18 18 18 17 17 17 17 17 17 17 18 17 16 15 15 14 14 14 14 14 14 14 14 14 14 14 14 14 14
14 11 11 13 14 15 18 18 20 21 21 22 22 22 22 21 19 19 18 18 18 18 18 17 17 17 17 17 16 16 17 17 16 15 15 14 14 14 14 14 14 14 14 14 14 14 13 13 13
13 10 12 14 15 16 17 18 18 19 20 21 21 21 21 20 20 19 19 18 18 18 18 17 17 17 16 16 16 16 16 17 17 16 15 14 14 14 14 14 14 14 14 14 14 13 13 13 13
12 11 13 15 16 16 17 17 18 18 18 19 19 20 20 20 20 19 19 19 19 18 18 17 17 17 16 16 16 16 16 16 16 16 15 15 15 14 14 14 14 14 14 14 14 13 13 13 14
12 13 15 16 16 16 16 17 17 17 18 19 18 18 19 19 19 19 19 19 19 19 18 18 17 17 16 16 16 16 16 16 16 16 16 15 15 15 14 14 14 14 14 14 13 13 13 13 13
12 13 15 15 15 15 16 16 16 16 18 18 18 18 18 18 19 19 19 19 19 19 19 18 18 17 17 16 16 16 16 15 16 16 16 16 15 15 14 14 13 13 13 13 13 13 13 13 13
13 13 14 14 14 15 15 15 15 16 17 18 18 18 18 18 18 19 18 18 18 18 18 18 18 18 17 17 16 16 16 15 15 15 15 15 15 14 14 13 13 13 13 13 12 13 13 13 13
13 13 12 13 14 14 15 13 13 16 17 17 17 18 18 18 18 18 19 19 19 19 18 18 18 18 18 18 17 16 16 15 15 14 14 14 14 14 14 13 13 13 12 12 12 13 13 13 13
12 11 11 12 13 14 13 12 13 16 16 16 16 17 17 18 18 18 19 19 19 19 19 18 18 18 18 18 17 17 16 15 15 14 14 14 13 13 13 13 13 12 12 12 12 13 13 13 13
11 10 10 11 12 12 12 11 13 16 15 15 16 16 17 17 18 18 18 18 19 19 19 19 18 18 18 18 18 17 16 15 15 14 14 13 13 13 13 13 12 12 12 12 12 13 13 13 13
9 9 10 10 12 12 11 11 12 15 15 14 15 16 16 17 17 18 18 18 18 18 19 19 18 18 18 17 17 17 16 16 15 14 14 13 13 13 13 12 12 12 12 12 12 12 12 13 12
10 10 10 10 12 12 11 11 11 13 13 13 15 16 16 17 17 17 18 18 18 18 18 18 18 18 18 17 17 17 16 16 15 15 14 14 13 13 12 12 12 12 12 12 12 12 12 12 12
10 9 9 10 11 11 10 10 10 11 12 13 14 15 15 16 17 17 17 17 18 18 18 18 18 18 18 17 17 17 17 17 16 15 14 14 14 13 13 12 12 12 12 12 12 12 12 12 12
9 9 9 9 9 9 9 9 9 10 11 13 13 14 15 15 16 16 17 17 17 17 17 17 17 17 17 17 17 17 16 16 16 15 14 14 14 13 13 13 12 12 12 12 12 12 11 12 11
9 9 10 9 8 6 7 7 7 8 9 11 12 14 15 16 16 16 16 17 17 17 17 17 17 17 17 17 17 17 17 16 16 16 15 15 14 13 13 13 12 12 12 11 11 11 11 11 11
9 9 9 8 7 6 6 6 7 7 8 10 11 14 16 17 17 16 16 16 16 16 16 16 17 17 16 16 16 17 17 17 17 16 16 15 14 13 13 13 12 12 11 11 11 11 11 11 10
9 8 7 5 5 5 5 5 6 6 9 11 12 15 16 16 16 16 16 16 16 16 16 16 16 16 16 16 16 16 16 16 16 16 15 15 14 13 12 12 12 11 11 11 11 11 10 10 10
8 6 5 5 4 5 6 5 6 8 9 9 11 14 15 16 16 16 16 15 15 15 15 15 16 16 16 16 15 16 16 16 16 16 16 15 14 13 12 12 11 11 11 11 10 10 10 9 9
7 6 5 6 5 5 6 6 7 9 10 11 12 13 14 14 15 15 15 15 15 15 15 15 15 15 15 15 15 15 15 16 16 16 15 15 14 13 12 11 11 10 10 10 10 9 9 8 8
6 5 5 4 4 4 4 5 7 10 11 11 12 12 13 13 13 13 13 13 14 14 14 14 14 15 15 15 14 14 15 15 15 15 15 14 13 12 11 11 10 9 9 9 9 9 8 7 7
7 6 4 3 3 4 5 5 6 9 11 10 9 10 12 12 12 12 12 12 13 13 13 13 14 14 14 14 14 13 14 14 15 15 14 13 12 11 11 10 9 8 8 8 8 7 7 7 6
6 6 5 3 3 4 4 7 8 9 10 9 9 11 11 11 11 11 11 12 12 12 12 13 13 13 13 13 13 13 13 13 14 14 13 12 11 11 10 9 8 7 7 7 7 6 6 6 5
6 6 5 4 4 4 4 6 9 8 8 9 10 10 11 10 10 10 10 11 11 11 11 12 12 12 12 12 12 12 12 13 13 13 12 11 10 10 9 8 7 6 7 6 6 6 6 5 4
Wind_Speed
10 9 3 4 5 4 4 6 5 5 3 3 3 6 7 3 3 3 4 12 16 16 18 21 21 20 19 18 17 17 16 17 17 18 18 18 16 15 14 13 12 11 11 11 11 11 11 10 9
5 4 5 5 4 2 7 6 6 7 6 4 1 5 5 2 2 7 6 14 19 17 18 19 21 20 19 18 18 18 18 18 18 18 18 17 16 15 14 13 13 12 11 11 10 10 9 9 8
4 2 4 4 5 7 7 5 5 5 5 3 3 5 5 5 5 8 10 18 17 14 18 19 21 20 19 18 18 19 18 18 18 18 18 17 16 15 14 13 12 11 10 10 10 9 9 8 7
3 4 5 3 8 9 7 4 6 8 5 1 3 5 3 1 5 7 17 19 17 12 16 20 21 20 19 18 19 19 18 18 17 17 17 17 16 15 14 13 12 10 9 9 8 8 8 7 6
4 4 3 4 9 8 8 6 5 7 4 1 3 4 2 4 6 13 18 18 18 13 15 20 21 20 19 18 18 19 18 18 17 16 16 16 15 15 14 13 11 9 7 7 7 8 7 6 5
3 4 5 7 9 8 9 7 4 8 7 3 4 4 0 1 9 13 14 15 17 17 16 19 21 20 20 18 18 18 19 18 17 15 15 14 14 15 15 14 12 9 7 6 7 7 7 5 4
5 5 7 8 7 8 11 6 5 9 10 7 7 6 2 3 7 11 12 12 13 14 14 15 18 19 20 19 18 18 19 18 17 16 14 12 12 15 16 14 12 9 8 7 7 7 6 5 4
6 5 6 6 7 7 7 3 4 8 10 6 7 9 7 7 8 10 11 11 11 12 14 12 15 16 16 17 18 18 18 17 16 15 13 11 11 15 17 15 12 10 8 7 7 6 6 4 4
5 4 6 7 8 6 5 4 7 4 4 2 3 7 9 8 10 12 10 9 11 12 11 11 11 13 15 15 17 17 17 17 17 16 14 10 10 13 15 14 13 10 8 6 5 5 4 3 5
5 6 8 5 5 3 4 2 5 6 2 1 3 2 6 9 11 13 14 15 15 15 14 12 13 12 14 15 14 14 15 15 16 15 14 11 11 12 12 15 14 12 9 6 4 4 3 2 5
8 8 6 5 6 4 3 3 2 1 3 1 2 1 4 5 8 12 16 16 16 17 16 15 14 12 13 10 12 11 12 13 14 16 15 13 11 10 10 11 10 9 7 4 2 5 5 5 5
5 6 6 5 7 5 4 4 3 5 7 4 1 1 2 3 7 9 12 15 14 15 18 16 15 14 13 12 11 11 10 10 10 14 15 12 8 8 8 8 9 8 6 4 5 5 6 6 6
6 5 5 5 6 6 6 7 6 7 10 9 5 4 7 8 8 8 8 8 10 14 17 17 17 16 14 10 9 11 10 10 12 13 14 14 8 6 7 7 8 7 6 7 6 5 5 5 6
5 5 5 5 4 4 7 9 7 9 9 9 9 9 8 9 10 8 8 9 9 12 15 16 19 18 17 15 13 10 11 12 13 12 14 16 13 9 7 5 6 7 8 8 7 6 5 4 5
4 2 4 5 5 4 3 11 9 11 10 11 12 13 13 11 10 11 10 10 10 11 13 16 19 19 19 18 16 11 12 13 11 12 16 17 15 13 10 6 5 8 10 10 9 7 6 4 4
4 3 3 6 5 7 7 14 10 10 10 12 13 14 15 16 13 12 12 11 10 9 11 15 17 18 19 17 15 10 12 12 11 13 16 17 16 17 12 7 6 10 11 9 5 4 4 4 4
2 2 5 7 6 7 10 10 11 10 10 12 12 12 14 15 15 13 13 12 11 10 11 14 15 18 19 17 14 12 10 10 11 13 13 15 17 18 14 8 8 13 8 5 4 3 3 3 2
6 5 5 7 5 3 8 10 11 8 8 11 11 11 11 13 17 14 12 12 13 12 11 14 16 17 17 13 10 9 9 10 9 10 12 16 16 18 15 9 10 11 6 5 5 5 3 3 1
5 2 5 7 5 6 8 10 12 12 10 13 14 14 14 14 13 11 10 10 10 9 9 11 15 16 15 12 12 12 12 11 10 8 13 16 17 18 14 9 8 7 7 7 7 4 4 3 2
3 5 6 6 4 4 8 13 12 14 13 16 18 18 17 15 12 11 10 9 9 9 9 10 13 15 15 15 15 11 11 7 7 7 10 15 18 18 16 13 11 9 7 7 6 4 3 2 2
5 5 5 6 7 6 7 11 8 9 9 12 15 16 15 16 16 13 11 11 9 9 9 8 11 14 16 15 9 6 5 4 3 6 9 11 16 18 16 15 11 10 8 8 6 5 6 4 2
3 2 1 2 4 6 4 8 9 9 11 11 10 10 11 13 13 11 10 10 10 10 9 9 9 12 14 14 14 15 12 9 9 10 8 10 12 15 17 16 13 11 8 8 6 5 4 5 3
5 4 4 3 3 5 3 6 11 8 9 12 11 10 10 10 10 9 9 8 8 8 8 7 7 10 12 14 17 18 11 8 6 8 10 10 9 10 14 15 13 11 9 9 8 6 5 4 4
7 6 6 5 4 5 6 7 9 6 8 8 8 6 7 6 6 6 4 3 4 4 5 5 5 8 11 14 16 18 16 12 13 13 13 11 9 9 11 13 11 10 10 10 9 7 7 4 4
6 5 3 4 2 7 5 5 11 12 12 10 11 9 7 6 5 5 4 2 2 3 4 4 4 6 9 14 15 16 17 18 19 17 15 14 11 9 13 13 12 10 9 10 9 8 7 6 6
6 8 6 5 5 6 5 8 9 12 10 8 7 7 7 7 6 5 5 4 3 3 4 4 4 6 8 12 14 13 15 14 12 14 14 14 11 9 11 11 11 10 11 11 9 8 6 5 5
7 5 5 3 2 5 7 8 10 7 3 4 6 7 7 7 7 6 5 5 4 4 5 5 6 6 8 11 12 12 13 13 13 14 11 9 9 10 13 13 12 11 9 10 10 7 7 6 4
4 6 5 4 2 6 7 6 5 6 5 7 6 6 7 7 7 7 7 7 6 6 6 6 7 8 8 10 12 12 13 14 14 14 15 13 12 13 14 14 13 12 10 10 9 7 7 6 5
5 4 4 4 4 3 6 8 6 5 5 6 6 7 8 10 10 9 9 9 8 7 7 7 7 7 8 10 11 13 13 13 15 15 15 15 13 16 15 15 14 13 11 10 9 7 8 7 5
7 7 7 4 5 4 4 9 8 8 7 7 9 12 13 13 13 12 11 10 8 8 8 8 8 8 8 10 12 14 14 14 15 14 15 15 16 15 15 15 14 12 11 9 9 8 7 6 5
Wind_Direction
313 346 45 49 53 46 256 249 239 288 281 236 196 130 127 134 167 172 130 144 142 150 156 153 150 144 139 137 135 134 134 136 137 136 133 129 126 121 116 114 114 113 112 112 110 105 101 101 100
341 7 54 61 101 207 257 249 260 239 232 230 122 100 102 102 145 126 126 151 148 152 154 155 153 147 143 141 139 137 134 134 134 134 134 132 129 125 121 120 120 117 112 109 108 107 104 100 94
336 36 86 95 162 199 230 234 305 292 257 217 54 64 104 163 169 161 153 148 147 151 152 158 155 150 147 145 144 141 138 137 137 138 139 137 135 132 128 127 126 124 120 115 112 111 109 103 95
50 63 71 126 225 227 226 245 335 308 295 20 78 55 79 200 191 163 144 147 147 147 150 160 158 154 151 150 150 146 143 142 142 144 147 147 145 140 137 135 136 136 132 126 122 121 117 108 97
68 96 129 220 239 255 257 262 267 276 270 245 111 100 51 346 116 135 146 150 150 150 153 162 162 159 157 157 156 153 150 149 148 149 153 155 155 151 148 146 148 146 140 132 131 129 122 111 91
85 93 149 218 237 260 269 256 252 254 254 229 141 115 68 360 125 144 153 155 155 155 158 166 167 164 163 162 162 161 158 156 154 154 157 160 164 163 158 156 157 154 146 138 135 131 122 109 83
142 141 188 206 221 249 260 258 221 234 236 218 157 119 145 212 169 150 155 153 156 156 160 168 171 170 168 168 168 167 164 162 160 158 159 166 175 174 167 164 162 158 150 140 135 134 126 112 81
162 148 199 210 206 236 255 260 261 220 224 224 144 138 175 206 173 135 140 147 157 161 166 169 172 172 171 171 173 172 169 166 165 161 159 167 181 177 168 166 163 158 153 146 139 134 125 103 61
130 134 206 211 194 229 271 313 313 281 214 185 142 165 181 165 140 123 129 143 164 171 174 173 171 173 172 173 178 176 173 171 167 163 164 158 154 158 161 162 160 159 159 156 145 135 127 95 39
145 185 216 218 194 225 315 320 318 354 298 161 54 87 136 144 149 148 157 167 176 182 183 181 178 176 173 177 177 177 176 174 168 169 169 159 151 153 160 162 163 164 166 162 149 124 103 81 46
175 196 216 255 279 291 294 301 309 17 271 292 57 145 163 162 176 172 173 177 183 184 185 187 184 180 177 177 175 178 178 176 176 178 177 169 165 162 161 162 163 165 160 145 109 91 83 91 79
202 214 199 235 264 277 264 268 282 209 234 252 294 270 256 228 222 213 193 186 185 183 189 188 186 183 182 180 181 181 181 183 186 190 184 173 172 170 170 167 165 165 157 139 120 104 96 91 80
242 253 243 244 261 252 250 241 240 238 257 273 262 212 212 231 237 239 233 216 196 192 192 189 187 186 184 181 183 185 187 190 194 194 190 182 176 174 172 170 167 164 152 137 122 108 96 76 62
218 224 279 284 274 256 249 253 232 244 253 277 284 273 242 229 233 238 236 229 214 207 199 192 190 189 185 186 188 188 190 191 193 197 191 186 180 175 169 161 159 151 146 135 119 110 96 71 64
120 93 328 281 257 253 275 269 235 239 255 269 274 275 272 252 234 235 236 230 217 210 202 194 194 190 188 189 190 188 189 189 191 196 193 186 179 171 163 152 143 144 137 122 108 98 86 67 55
96 71 289 280 252 227 204 257 259 246 243 254 261 265 268 266 246 233 239 241 229 206 201 198 197 192 192 191 191 188 187 188 190 190 189 183 172 162 154 147 143 144 133 121 110 102 80 58 51
92 199 241 279 251 221 204 246 257 243 229 244 254 260 262 264 260 244 235 238 241 218 202 200 199 194 195 194 190 187 183 185 187 185 183 177 165 159 153 149 146 142 128 119 116 92 101 76 52
196 204 236 254 302 261 229 245 265 270 242 243 249 254 258 259 259 254 244 237 239 235 212 204 202 198 195 193 187 184 182 183 183 183 179 169 163 158 152 147 145 139 125 121 114 107 85 90 88
147 177 257 265 303 320 277 267 267 270 265 260 259 255 252 254 256 258 252 246 242 242 227 210 206 202 194 188 187 187 190 189 186 180 172 166 162 159 153 148 146 143 141 145 138 121 103 68 70
265 288 282 287 305 312 284 278 263 255 249 245 248 252 253 255 262 259 253 247 240 239 232 215 210 205 199 195 193 192 187 183 178 164 161 164 163 162 159 155 157 151 141 145 153 143 125 83 56
221 225 249 282 328 350 331 298 279 277 264 254 247 248 249 249 252 255 255 253 249 244 238 226 213 210 205 198 180 136 101 86 121 158 167 170 168 165 162 161 156 153 151 159 161 152 140 136 61
178 54 132 17 9 314 357 301 289 288 298 284 272 263 256 252 247 246 247 253 254 253 249 239 222 210 205 195 180 173 178 180 184 177 168 165 167 166 162 160 157 156 153 153 153 148 144 138 143
152 98 72 64 49 323 257 245 282 296 280 280 280 273 264 255 247 248 249 249 258 264 264 256 237 217 204 197 188 186 185 176 151 151 151 158 161 162 160 158 156 156 153 149 142 138 137 136 148
118 62 44 50 60 287 230 207 279 263 248 282 295 280 267 254 237 233 244 249 276 285 280 269 244 227 207 199 194 191 179 159 153 159 163 163 159 159 160 158 156 155 152 149 143 137 135 130 130
97 87 14 340 316 256 231 223 255 257 260 264 279 278 268 249 223 219 215 210 264 308 306 297 265 238 212 202 199 194 180 172 172 170 170 167 166 168 170 162 157 155 150 143 138 135 134 136 137
148 144 174 225 254 289 285 241 257 264 276 278 285 300 313 298 280 252 233 222 237 283 303 302 283 252 220 205 201 192 179 176 175 172 171 173 171 163 159 152 150 149 149 144 139 135 133 136 140
143 167 162 127 312 284 276 286 294 281 289 346 355 355 338 317 302 285 275 259 256 276 286 280 275 259 229 208 195 184 175 173 170 167 161 157 150 149 151 148 147 148 147 144 141 139 137 142 148
138 142 112 133 225 279 284 270 258 291 325 337 341 339 324 318 310 294 282 273 267 267 277 281 265 249 232 205 189 182 176 172 167 162 161 158 154 152 152 149 148 148 146 144 137 137 142 147 152
154 156 151 161 183 223 290 275 231 247 279 291 303 308 306 301 296 286 279 275 276 282 283 281 273 256 231 202 182 170 169 165 162 164 162 157 152 151 154 152 150 151 148 143 141 146 152 154 156
174 181 157 177 235 218 246 274 267 268 273 287 303 303 299 291 283 275 268 268 271 278 285 285 274 254 227 193 172 166 161 160 160 159 156 152 150 150 150 149 148 150 147 143 147 152 153 153 159
Height
1526 1526 1526 1526 1529 1538 1537 1526 1516 1511 1508 1505 1504 1504 1505 1507 1510 1514 1510 1509 1512 1514 1515 1517 1519 1521 1522 1523 1524 1525 1525 1526 1528 1530 1531 1532 1533 1533 1533 1532 1532 1531 1531 1531 1532 1533 1535 1535 1536
1524 1525 1527 1526 1535 1543 1536 1521 1514 1508 1505 1503 1502 1503 1505 1506 1507 1507 1507 1510 1512 1514 1516 1517 1519 1521 1522 1523 1524 1525 1525 1526 1528 1530 1531 1532 1533 1534 1534 1533 1533 1532 1532 1532 1533 1534 1535 1535 1536
1522 1524 1526 1528 1535 1537 1527 1514 1509 1503 1503 1501 1500 1501 1504 1505 1506 1506 1507 1510 1512 1514 1516 1517 1519 1521 1523 1523 1524 1525 1526 1526 1528 1529 1531 1532 1533 1534 1534 1534 1534 1534 1534 1534 1534 1535 1536 1536 1536
1520 1522 1524 1531 1531 1523 1516 1510 1508 1506 1503 1500 1500 1502 1505 1506 1506 1507 1507 1509 1512 1514 1516 1518 1520 1521 1523 1523 1524 1525 1526 1527 1528 1529 1531 1532 1534 1535 1535 1535 1536 1536 1536 1536 1536 1537 1537 1538 1538
1517 1519 1526 1530 1526 1517 1511 1509 1510 1508 1504 1501 1501 1503 1504 1506 1506 1507 1507 1509 1511 1514 1516 1518 1520 1522 1523 1523 1524 1525 1526 1527 1528 1529 1531 1533 1534 1535 1536 1537 1537 1537 1538 1538 1538 1539 1539 1539 1539
1516 1518 1529 1531 1523 1515 1508 1507 1509 1507 1504 1501 1500 1502 1504 1506 1506 1507 1508 1509 1512 1514 1516 1518 1520 1522 1523 1524 1524 1525 1526 1527 1528 1530 1531 1533 1535 1536 1537 1537 1538 1539 1539 1539 1540 1540 1540 1540 1540
1514 1519 1523 1522 1519 1516 1507 1505 1506 1504 1502 1500 1499 1501 1504 1505 1506 1507 1509 1510 1512 1514 1516 1518 1520 1522 1523 1524 1524 1525 1526 1527 1529 1530 1532 1534 1535 1536 1537 1538 1539 1539 1540 1540 1540 1540 1540 1540 1540
1510 1515 1516 1516 1515 1512 1504 1503 1502 1500 1498 1498 1497 1499 1502 1504 1506 1507 1510 1511 1513 1514 1516 1517 1519 1521 1522 1523 1524 1525 1526 1527 1529 1530 1532 1534 1535 1536 1537 1538 1539 1540 1540 1540 1540 1541 1540 1540 1539
1508 1515 1515 1510 1510 1507 1502 1501 1499 1497 1496 1496 1495 1496 1498 1502 1505 1506 1509 1511 1512 1513 1515 1516 1518 1519 1521 1523 1524 1524 1526 1527 1528 1530 1532 1533 1535 1536 1537 1538 1539 1539 1540 1540 1540 1540 1540 1540 1539
1505 1512 1508 1502 1501 1501 1501 1501 1499 1497 1495 1495 1495 1495 1497 1500 1502 1504 1506 1508 1509 1511 1513 1515 1516 1518 1520 1521 1522 1523 1524 1526 1527 1529 1531 1532 1533 1535 1536 1537 1537 1538 1539 1539 1540 1539 1539 1539 1538
1501 1503 1500 1498 1498 1499 1500 1500 1499 1498 1496 1495 1495 1496 1496 1498 1500 1501 1502 1504 1506 1509 1511 1513 1515 1516 1518 1519 1521 1522 1523 1524 1526 1527 1529 1530 1531 1533 1534 1535 1536 1537 1537 1538 1538 1538 1538 1538 1537
1498 1497 1496 1497 1498 1498 1499 1498 1498 1496 1495 1494 1495 1496 1497 1497 1498 1499 1499 1500 1503 1505 1508 1510 1512 1514 1515 1517 1518 1520 1521 1522 1524 1525 1526 1527 1528 1530 1532 1533 1534 1535 1536 1536 1537 1538 1537 1537 1536
1496 1495 1495 1496 1497 1497 1497 1496 1495 1493 1493 1493 1493 1494 1495 1496 1497 1498 1499 1500 1501 1502 1504 1507 1509 1511 1512 1514 1516 1517 1519 1520 1522 1523 1524 1525 1526 1528 1530 1531 1532 1533 1534 1535 1536 1536 1536 1535 1534
1493 1494 1494 1494 1494 1494 1494 1492 1492 1488 1490 1490 1489 1489 1490 1492 1493 1494 1495 1497 1498 1499 1501 1503 1505 1506 1508 1510 1512 1513 1516 1518 1519 1521 1522 1523 1525 1526 1527 1529 1530 1532 1533 1534 1534 1535 1535 1534 1533
1492 1494 1494 1492 1491 1491 1493 1490 1486 1485 1486 1485 1484 1484 1484 1485 1487 1488 1490 1492 1493 1495 1496 1498 1500 1502 1504 1505 1507 1510 1512 1514 1515 1517 1519 1520 1522 1523 1525 1527 1528 1530 1531 1532 1533 1533 1533 1532 1531
1491 1496 1499 1492 1489 1488 1495 1489 1482 1481 1481 1480 1480 1479 1478 1478 1479 1481 1484 1486 1488 1489 1491 1493 1495 1498 1499 1501 1503 1505 1508 1510 1512 1513 1515 1517 1519 1521 1523 1525 1526 1528 1530 1531 1532 1532 1531 1530 1529
1495 1501 1501 1495 1487 1486 1488 1485 1477 1476 1477 1476 1475 1474 1473 1472 1472 1474 1476 1479 1482 1483 1485 1487 1490 1492 1495 1497 1499 1501 1503 1505 1507 1510 1512 1514 1516 1518 1520 1522 1525 1527 1528 1529 1530 1530 1529 1528 1527
1499 1500 1498 1495 1486 1484 1484 1482 1476 1473 1473 1471 1470 1469 1468 1466 1465 1467 1470 1473 1475 1477 1479 1481 1483 1486 1490 1493 1495 1497 1498 1501 1503 1506 1508 1511 1513 1515 1518 1520 1523 1525 1526 1527 1528 1528 1528 1527 1526
1491 1494 1496 1493 1486 1485 1482 1480 1475 1469 1469 1467 1464 1462 1461 1461 1461 1463 1465 1467 1468 1470 1472 1474 1476 1479 1483 1486 1489 1491 1493 1495 1498 1501 1504 1507 1509 1512 1515 1517 1520 1522 1524 1525 1526 1527 1526 1525 1524
1491 1495 1496 1491 1487 1485 1484 1478 1470 1464 1461 1458 1456 1455 1454 1454 1455 1457 1460 1461 1462 1464 1465 1467 1469 1472 1475 1478 1481 1484 1487 1489 1492 1496 1499 1502 1505 1508 1511 1514 1517 1519 1521 1523 1524 1525 1525 1524 1523
1491 1494 1494 1493 1489 1487 1486 1477 1468 1458 1452 1449 1448 1446 1447 1448 1448 1450 1453 1454 1456 1457 1459 1461 1462 1465 1467 1471 1475 1478 1481 1484 1487 1490 1493 1496 1500 1504 1507 1510 1513 1516 1518 1520 1522 1522 1523 1522 1522
1491 1491 1491 1492 1496 1499 1495 1492 1471 1461 1452 1445 1442 1441 1441 1441 1442 1444 1446 1449 1450 1452 1453 1454 1456 1457 1460 1463 1466 1468 1471 1474 1477 1481 1485 1490 1495 1499 1502 1506 1509 1512 1515 1517 1519 1520 1520 1520 1519
1489 1490 1492 1495 1499 1503 1499 1500 1475 1464 1456 1444 1439 1438 1438 1438 1439 1440 1442 1444 1445 1446 1447 1448 1449 1450 1452 1455 1458 1461 1464 1468 1471 1475 1479 1484 1488 1493 1497 1501 1504 1507 1510 1513 1515 1516 1517 1517 1517
1487 1493 1497 1502 1507 1510 1499 1501 1482 1467 1453 1445 1439 1437 1437 1437 1437 1438 1439 1440 1441 1441 1442 1442 1442 1443 1445 1448 1450 1454 1456 1460 1465 1468 1472 1477 1481 1486 1491 1495 1499 1502 1505 1508 1510 1512 1513 1513 1513
1490 1501 1512 1512 1516 1506 1492 1492 1476 1455 1448 1446 1442 1438 1437 1436 1436 1436 1437 1437 1437 1437 1437 1437 1437 1437 1439 1441 1444 1447 1450 1454 1458 1462 1466 1470 1474 1478 1483 1488 1492 1496 1500 1503 1506 1508 1509 1509 1509
1492 1499 1509 1508 1510 1502 1488 1484 1465 1448 1444 1442 1440 1438 1436 1435 1435 1434 1433 1433 1433 1433 1433 1433 1433 1433 1433 1435 1437 1441 1444 1448 1452 1456 1460 1464 1467 1472 1477 1482 1487 1491 1495 1498 1501 1503 1505 1506 1506
1492 1499 1500 1508 1511 1512 1495 1481 1462 1446 1443 1441 1439 1437 1436 1435 1433 1432 1431 1430 1429 1429 1428 1428 1428 1428 1428 1429 1431 1433 1436 1441 1446 1450 1454 1458 1462 1467 1472 1477 1482 1487 1491 1494 1497 1499 1500 1502 1502
1489 1494 1504 1513 1517 1507 1494 1483 1468 1450 1444 1442 1440 1438 1436 1435 1433 1431 1429 1427 1425 1424 1423 1423 1423 1422 1422 1423 1424 1426 1429 1434 1440 1444 1448 1452 1457 1462 1467 1472 1477 1482 1487 1490 1492 1495 1496 1497 1497
1491 1493 1498 1507 1510 1510 1502 1474 1453 1448 1445 1443 1440 1437 1435 1433 1430 1428 1426 1423 1421 1419 1418 1417 1416 1416 1415 1416 1417 1419 1422 1427 1433 1438 1442 1447 1452 1456 1462 1467 1472 1478 1482 1486 1488 1491 1492 1493 1492
1486 1490 1496 1506 1507 1504 1503 1473 1446 1445 1443 1441 1438 1435 1432 1429 1425 1422 1419 1417 1414 1413 1412 1411 1410 1409 1409 1409 1410 1412 1416 1421 1426 1431 1437 1442 1447 1452 1457 1462 1468 1474 1478 1482 1485 1487 1488 1488 1488